[[{"header":{"parameterUnit":"m.s-1","parameterCategory":1,"la1":30.2991,"la2":30.254,"lo1":-89.0895,"lo2":-89.0444,"dy":0.0017,"dx":0.0017,"nx":28,"ny":28,"refTime":"2025-04-02T09:00:00:Z","depth":0,"parameterNumber":2,"parameterNumberName":"U-component_of_WINDS"},"data":[0,0,0,0,0,0,0,0,0,0,0,0,0,0,0,0,0,0,0,0,0,0,0,0,0,0,0,0,0,0,0,0,0,0,0,0,0,0,0,0,0,0,0,0,0,0,0,0,0,0,0,0,0,0,0,0,0,0,-4.9002,-4.9003,0,-4.908,-4.9081,-4.9081,-4.908,-4.9079,-4.9078,-4.9077,-4.9154,-4.9157,-4.916,0,0,0,0,0,0,0,0,0,0,0,0,0,-4.8849,-4.8852,-4.9002,-4.9003,-4.9004,-4.908,-4.9081,-4.9082,-4.908,-4.9079,-4.9078,-4.9077,-4.9153,-4.9157,-4.916,0,0,0,0,0,0,0,0,0,0,0,0,0,-4.892,-4.8853,-4.9001,-4.9012,-4.9014,-4.9079,-4.9081,-4.9082,-4.9081,-4.9079,-4.9078,-4.9076,-4.9152,-4.9156,-4.9161,-4.922,0,0,-4.9175,-4.9177,0,0,0,0,0,0,0,0,-4.8916,-4.8926,-4.901,-4.9012,-4.9014,-4.9069,-4.9055,-4.9128,-4.9081,-4.9055,-4.9077,-4.9075,-4.9127,-4.9133,-4.9151,-4.9223,-4.9227,-4.9175,-4.9178,-4.918,-4.9181,0,0,0,0,0,0,0,-4.8911,-4.8922,-4.9032,-4.9011,-4.9013,-4.9012,-4.9021,-4.9069,-4.9099,-4.9057,-4.9058,-4.9067,-4.9128,-4.9147,-4.9153,-4.9228,-4.9175,-4.9179,-4.9182,-4.9184,-4.9351,-4.9353,0,0,0,0,0,0,-4.8904,-4.8918,-4.903,-4.9035,-4.896,-4.9016,-4.9026,-4.9053,-4.9098,-4.9104,-4.9068,-4.9067,-4.914,-4.9148,-4.9156,-4.9226,-4.918,-4.9184,-4.9187,-4.935,-4.9352,-4.9354,0,0,0,0,0,0,-4.8901,-4.8914,-4.9027,-4.8977,-4.8991,-4.9021,-4.9051,-4.9055,-4.9074,-4.9106,-4.9111,-4.9083,-4.9139,-4.9149,-4.9204,-4.9229,-4.9186,-4.919,-4.9348,-4.935,-4.9353,-4.9369,0,0,0,0,0,0,-4.8897,-4.8913,-4.8936,-4.8977,-4.8994,-4.9074,-4.9052,-4.9058,-4.9082,-4.9081,-4.9121,-4.9126,-4.9139,-4.9197,-4.9208,-4.9234,-4.9194,-4.9345,-4.9349,-4.9352,-4.9366,-4.9372,-4.9377,0,0,0,0,0,-4.8891,-4.8937,-4.8937,-4.8951,-4.9023,-4.9076,-4.9085,-4.9099,-4.9084,-4.9107,-4.9128,-4.9125,-4.9225,-4.9203,-4.9215,-4.9243,-4.9344,-4.9348,-4.9352,-4.9364,-4.9371,-4.9376,0,0,0,0,0,0,-4.8897,-4.8943,-4.8943,-4.9004,-4.9036,-4.9075,-4.9105,-4.9106,-4.9142,-4.9139,-4.9154,-4.9163,-4.9217,-4.9236,-4.921,-4.9302,-4.9282,-4.9289,-4.9287,-4.9294,-4.9299,-4.9292,-4.9197,0,0,0,0,0,-4.8906,-4.8946,-4.8983,-4.9033,-4.905,-4.9075,-4.9098,-4.9106,-4.914,-4.9153,-4.9177,-4.9209,-4.9248,-4.9272,-4.931,-4.937,-4.9378,-4.9395,-4.9401,-4.9405,-4.9409,-4.9441,-4.9449,-4.9366,-4.9366,-4.9366,0,0,-4.8924,-4.8954,-4.8978,-4.9035,-4.9061,-4.9101,-4.9086,-4.9129,-4.9158,-4.9159,-4.9211,-4.9231,-4.9267,-4.9325,-4.9351,-4.9342,-4.9434,-4.941,-4.9413,-4.9415,-4.9446,-4.9454,-4.9461,-4.9369,-4.9369,-4.9368,0,0,-4.8976,-4.9004,-4.9048,-4.9074,-4.9114,-4.913,-4.9141,-4.9181,-4.9194,-4.9247,-4.9249,-4.9284,-4.935,-4.9375,-4.9397,-4.946,-4.9458,-4.9472,-4.9498,-4.9529,-4.9535,-4.9541,-4.9562,-4.9569,-4.9477,-4.9478,-4.9478,0,-4.8993,-4.9054,-4.907,-4.9113,-4.9138,-4.9142,-4.9186,-4.9211,-4.926,-4.9277,-4.9267,-4.935,-4.9375,-4.9437,-4.9453,-4.9471,-4.9482,-4.9466,-4.9533,-4.9539,-4.9545,-4.9565,-4.9573,-4.9479,-4.9479,-4.9478,-4.9478,0,-4.9071,-4.9113,-4.9144,-4.9193,-4.9221,-4.9264,-4.9287,-4.9314,-4.932,-4.9337,-4.9391,-4.9422,-4.9465,-4.9481,-4.9487,-4.9544,-4.9537,-4.953,-4.951,-4.9554,-4.9572,-4.958,-4.9481,-4.948,-4.948,-4.9479,0,0,-4.9127,-4.9185,-4.9196,-4.9218,-4.9262,-4.9295,-4.9338,-4.9381,-4.9403,-4.9438,-4.9473,-4.953,-4.9524,-4.9548,-4.9558,-4.9586,-4.9631,-4.9575,-4.9576,-4.9582,-4.9694,-4.9697,-4.9706,-4.9632,-4.9633,-4.9634,-4.969,0,-4.9183,-4.926,-4.9277,-4.9343,-4.9381,-4.9387,-4.9425,-4.9456,-4.9474,-4.9508,-4.9528,-4.9567,-4.9557,-4.9571,-4.9599,-4.962,-4.9654,-4.9617,-4.9663,-4.9664,-4.9651,-4.9716,-4.972,-4.9771,-4.9698,-4.9699,-4.97,0,-4.9257,-4.9293,-4.9364,-4.9403,-4.942,-4.9453,-4.9494,-4.9528,-4.9563,-4.9574,-4.9602,-4.9609,-4.9653,-4.9633,-4.9694,-4.9668,-4.9688,-4.9702,-4.9704,-4.9706,-4.9683,-4.9718,-4.9788,-4.9794,-4.9712,-4.9711,-4.9711,0,-4.9288,-4.9355,-4.9406,-4.9425,-4.9472,-4.9495,-4.9516,-4.955,-4.9575,-4.961,-4.9626,-4.9666,-4.9688,-4.9718,-4.9735,-4.972,-4.9794,-4.9776,-4.9803,-4.9802,-4.9816,-4.9814,-4.9887,-4.9834,-4.9833,-4.9833,-4.9833,0,-4.9346,-4.9388,-4.942,-4.9451,-4.9498,-4.9517,-4.9563,-4.9584,-4.9614,-4.9648,-4.9656,-4.9688,-4.971,-4.9745,-4.9759,-4.9806,-4.9816,-4.9825,-4.9827,-4.9823,-4.9821,-4.9834,-4.983,-4.9835,-4.9835,-4.9834,-4.9834,0,-4.9388,-4.9411,-4.9466,-4.9507,-4.9518,-4.9551,-4.9586,-4.9616,-4.9634,-4.9677,-4.9689,-4.9718,-4.9759,-4.978,-4.9831,-4.984,-4.9893,-4.9895,-4.9881,-4.9881,-4.9906,-4.9903,-4.9988,-4.9999,-4.994,-4.9941,-4.9941,0,-4.9422,-4.9455,-4.95,-4.9523,-4.9545,-4.9583,-4.9609,-4.9629,-4.9655,-4.9698,-4.9722,-4.9764,-4.9798,-4.9864,-4.9889,-4.9928,-4.9929,-4.9956,-4.9935,-4.9929,-4.9927,-4.9923,-4.9926,-4.9959,-4.996,-4.996,-4.9961,0,-4.948,-4.949,-4.9527,-4.9568,-4.9598,-4.9632,-4.9664,-4.9683,-4.9708,-4.9737,-4.978,-4.9807,-4.986,-4.99,-4.9942,-4.9962,-4.9965,-4.9968,-4.9975,-4.9969,-4.9959,-4.9963,-4.9888,-4.9965,-4.9964,-4.9964,-4.9964,-4.9964,-4.9518,-4.9546,-4.9582,-4.9623,-4.965,-4.968,-4.971,-4.9733,-4.9769,-4.9814,-4.9824,-4.9868,-4.9902,-4.9958,-4.998,-5.0015,-5.0009,-5.0021,-5.0023,-5.0025,-5.0025,-4.9956,-5.0023,-5.0023,-5.0023,-5.0022,-5.0022,0,-4.9574,-4.9598,-4.9635,-4.9681,-4.9712,-4.9715,-4.9751,-4.9777,-4.9816,-4.9848,-4.9882,-4.9931,-4.9971,-5.0,-5.004,-5.0062,-5.0064,-5.0072,-5.0069,-5.0073,-5.0029,-5.0017,-5.0069,-5.0069,-5.0069,-5.0069,-5.0069,-5.0069,-4.9607,-4.9655,-4.967,-4.9732,-4.9755,-4.9799,-4.982,-4.9847,-4.9873,-4.9927,-4.996,-4.9979,-5.001,-5.0053,-5.0089,-5.0096,-5.011,-5.0117,-5.0124,-5.0082,-5.0077,-5.0072,-5.006,-5.012,-5.012,-5.0165,-5.0165,-5.0165]},{"header":{"parameterUnit":"m.s-1","parameterCategory":1,"la1":30.2991,"la2":30.254,"lo1":-89.0895,"lo2":-89.0444,"dy":0.0017,"dx":0.0017,"nx":28,"ny":28,"refTime":"2025-04-02T09:00:00:Z","depth":0,"parameterNumber":3,"parameterNumberName":"V-component_of_WINDS"},"data":[0,0,0,0,0,0,0,0,0,0,0,0,0,0,0,0,0,0,0,0,0,0,0,0,0,0,0,0,0,0,0,0,0,0,0,0,0,0,0,0,0,0,0,0,0,0,0,0,0,0,0,0,0,0,0,0,0,0,5.5233,5.5235,0,5.5345,5.5346,5.5347,5.536,5.5359,5.5358,5.5357,5.5469,5.5473,5.5477,0,0,0,0,0,0,0,0,0,0,0,0,0,5.5032,5.5036,5.5233,5.5235,5.5236,5.5344,5.5346,5.5347,5.5361,5.5359,5.5358,5.5357,5.5468,5.5473,5.5478,0,0,0,0,0,0,0,0,0,0,0,0,0,5.5129,5.5037,5.5233,5.5256,5.5259,5.5344,5.5346,5.5348,5.5361,5.5359,5.5358,5.5356,5.5467,5.5472,5.5478,5.5548,0,0,5.5497,5.5499,0,0,0,0,0,0,0,0,5.5124,5.5137,5.5251,5.5254,5.5258,5.5337,5.5316,5.5415,5.5361,5.5322,5.5357,5.5355,5.5427,5.5436,5.546,5.5553,5.5558,5.5497,5.5501,5.5503,5.5505,0,0,0,0,0,0,0,5.5117,5.5132,5.5277,5.5253,5.5257,5.526,5.5272,5.5335,5.5382,5.5325,5.5327,5.534,5.5428,5.5454,5.5463,5.556,5.5497,5.5502,5.5506,5.5508,5.5719,5.5721,0,0,0,0,0,0,5.5106,5.5126,5.5274,5.5281,5.5186,5.5265,5.5279,5.5313,5.5381,5.539,5.5341,5.534,5.5445,5.5456,5.5467,5.5556,5.5503,5.5509,5.5512,5.5718,5.572,5.5722,0,0,0,0,0,0,5.5102,5.5119,5.5269,5.5204,5.5223,5.5271,5.5309,5.5316,5.5343,5.5393,5.5402,5.5359,5.5444,5.5458,5.5529,5.556,5.5512,5.5517,5.5715,5.5718,5.5721,5.5732,0,0,0,0,0,0,5.5096,5.5118,5.5144,5.5204,5.5227,5.5329,5.5311,5.532,5.5353,5.5353,5.5413,5.5421,5.5444,5.552,5.5535,5.5567,5.5522,5.5713,5.5717,5.572,5.5729,5.5735,5.574,0,0,0,0,0,5.5089,5.5142,5.5146,5.5163,5.5261,5.5331,5.5344,5.5369,5.5355,5.5383,5.5416,5.5419,5.5554,5.5527,5.5544,5.5578,5.5711,5.5715,5.572,5.5727,5.5734,5.574,0,0,0,0,0,0,5.5083,5.515,5.5155,5.5229,5.5274,5.5333,5.5368,5.5376,5.5425,5.5423,5.5452,5.5466,5.5536,5.5564,5.5533,5.5651,5.5631,5.5639,5.563,5.5637,5.5643,5.5635,5.5527,0,0,0,0,0,5.509,5.5141,5.5197,5.5257,5.528,5.532,5.5352,5.5368,5.5416,5.5435,5.5473,5.5519,5.5572,5.5606,5.5657,5.5733,5.5747,5.5765,5.5771,5.5775,5.5782,5.5827,5.5836,5.5737,5.5737,5.5737,0,0,5.5106,5.5149,5.5179,5.5257,5.5294,5.5347,5.5336,5.5392,5.5432,5.5443,5.5513,5.5542,5.5596,5.567,5.5704,5.5696,5.5813,5.5781,5.5784,5.5789,5.5832,5.5842,5.585,5.574,5.5739,5.5739,0,0,5.5162,5.5199,5.5254,5.5292,5.5349,5.5376,5.5389,5.5448,5.5469,5.5539,5.555,5.5597,5.5687,5.5726,5.5757,5.5831,5.5836,5.5847,5.5876,5.5919,5.5927,5.5934,5.5962,5.5972,5.5853,5.5853,5.5853,0,5.5174,5.5254,5.5281,5.5338,5.5373,5.5387,5.5444,5.548,5.555,5.5574,5.5563,5.5679,5.5715,5.58,5.5819,5.5843,5.586,5.584,5.5923,5.5931,5.5938,5.5965,5.5976,5.5854,5.5854,5.5854,5.5854,0,5.5267,5.5323,5.5361,5.5431,5.547,5.5526,5.5563,5.5599,5.5613,5.5641,5.5714,5.5759,5.5821,5.5842,5.5855,5.593,5.5923,5.5917,5.5898,5.5948,5.5974,5.5985,5.5856,5.5856,5.5855,5.5855,0,0,5.5322,5.5408,5.5421,5.5454,5.5519,5.5563,5.5621,5.5683,5.5714,5.5762,5.5813,5.589,5.5887,5.5922,5.594,5.5978,5.6036,5.5968,5.597,5.5981,5.6124,5.6129,5.614,5.604,5.6042,5.6044,5.612,0,5.5386,5.5491,5.5518,5.5607,5.566,5.5675,5.5726,5.5772,5.58,5.585,5.5881,5.5936,5.5926,5.5948,5.5986,5.6021,5.6066,5.6016,5.6088,5.609,5.6075,5.6154,5.6158,5.6228,5.613,5.6132,5.6133,0,5.5476,5.5528,5.5622,5.5683,5.5707,5.5752,5.5812,5.5859,5.5912,5.593,5.5971,5.5986,5.6048,5.6025,5.6112,5.6077,5.6108,5.613,5.6134,5.6142,5.6116,5.6166,5.6251,5.6262,5.6149,5.6148,5.6147,0,5.5509,5.5602,5.5672,5.5699,5.5771,5.5803,5.5834,5.5886,5.5922,5.5975,5.5999,5.6058,5.609,5.6136,5.6167,5.6146,5.6252,5.623,5.6269,5.6269,5.6291,5.629,5.6384,5.6309,5.6309,5.6309,5.6308,0,5.5579,5.5637,5.5688,5.5731,5.5797,5.5828,5.5892,5.5924,5.597,5.602,5.6036,5.6082,5.612,5.6171,5.6196,5.6265,5.6279,5.6296,5.6302,5.6296,5.6294,5.6317,5.6314,5.6312,5.6311,5.631,5.631,0,5.5627,5.5663,5.5741,5.5803,5.5821,5.5866,5.592,5.5963,5.5993,5.6056,5.6072,5.6119,5.6181,5.6216,5.6294,5.631,5.6388,5.6391,5.6371,5.6374,5.6412,5.6408,5.6526,5.6544,5.6455,5.6456,5.6456,0,5.567,5.5715,5.5784,5.5819,5.5851,5.5907,5.5945,5.5978,5.6017,5.6082,5.6117,5.6181,5.6233,5.6332,5.6373,5.6433,5.6438,5.6475,5.6447,5.644,5.6441,5.6439,5.6445,5.648,5.6481,5.6482,5.6482,0,5.5744,5.576,5.5814,5.5876,5.5921,5.5971,5.602,5.6048,5.609,5.6133,5.6197,5.6238,5.6319,5.6382,5.6446,5.6478,5.6488,5.6491,5.6503,5.6498,5.6485,5.6495,5.6386,5.6488,5.6487,5.6487,5.6487,5.6486,5.5792,5.5834,5.589,5.595,5.5991,5.6038,5.6082,5.6118,5.6172,5.6241,5.6257,5.6326,5.638,5.6467,5.6501,5.6556,5.6549,5.6567,5.6572,5.6576,5.6578,5.6476,5.6567,5.6567,5.6567,5.6567,5.6567,0,5.5869,5.5906,5.5961,5.6031,5.6079,5.6084,5.614,5.618,5.624,5.629,5.6342,5.6417,5.6479,5.6526,5.659,5.6625,5.6631,5.664,5.6639,5.6647,5.6579,5.6563,5.6634,5.6634,5.6634,5.6634,5.6634,5.6634,5.5914,5.5986,5.601,5.6103,5.6139,5.6207,5.6239,5.6282,5.6323,5.6406,5.6458,5.6489,5.6538,5.6606,5.6664,5.6676,5.6699,5.6709,5.6722,5.6658,5.6651,5.6644,5.6629,5.6713,5.6713,5.6785,5.6785,5.6786]}]]